Location: Alphen
(52.1351°N, 4.6549°E)
Time: 01:52:01
(UTC+00:00)

USA 305 - Pass Details

Date: 27 January 2021
Orbit: 565 x 578 km, 54.0° (Epoch: 25 February)

Event Time Altitude Azimuth Distance (km) Brightness Sun altitude
Exits shadow 04:50:39 34° 172° (S) 948 4.0 -24.1°
Maximum altitude 04:51:29 37° 145° (SE) 880 4.0 -24.0°
Drops below altitude 10° 04:55:24 10° 77° (ENE) 1,864 6.6 -23.4°
Sets 04:57:45 0° 69° (ENE) 2,764 7.6 -23.0°
